EA1RCC-1 Weather Reports


Display with metric or nautical units.
time (UTC)temp
F
wind
direction
speed
MPH
gust
MPH
rain 1hr
in
rain 24hr
in
rain mn
in
humidity
%
barometer
mb
20260506062121 39 330 3.0 0.0 0.00 0.00 0.00 10 1015.0
20260506061119 40 0 0.0 0.0 0.00 0.00 0.00 10 1015.0
20260506050901 38 0 0.0 0.0 0.00 0.00 0.00 93 1015.0
20260506044900 33 0 0.0 0.0 0.00 0.00 0.00 10 1015.0
20260506043859 34 0 0.0 0.0 0.00 0.00 0.00 10 1015.0
20260506040434 35 0 0.0 0.0 0.00 0.00 0.00 10 1015.0
20260506035432 36 0 0.0 0.0 0.00 0.00 0.00 10 1015.0
20260506034430 37 0 0.0 0.0 0.00 0.00 0.00 10 1015.0
20260506033429 38 0 0.0 0.0 0.00 0.00 0.00 10 1015.0
20260506032428 33 0 0.0 0.0 0.00 0.00 0.00 10 1015.0
20260506031428 34 0 0.0 0.0 0.00 0.00 0.00 10 1015.0
20260506030427 35 0 0.0 0.0 0.00 0.00 0.00 10 1015.0
20260506025426 36 0 0.0 0.0 0.00 0.00 0.00 10 1015.0
20260506023214 37 0 0.0 0.0 0.00 0.00 0.00 10 1015.0
20260506022214 38 0 0.0 0.0 0.00 0.00 0.00 10 1015.0
20260506021213 34 0 0.0 0.0 0.00 0.00 0.00 10 1016.0
20260506020210 35 0 0.0 0.0 0.00 0.00 0.00 10 1016.0
20260506015209 36 0 0.0 0.0 0.00 0.00 0.00 10 1016.0
20260506014207 37 0 0.0 0.0 0.00 0.00 0.00 10 1016.0
20260506013207 38 0 0.0 0.0 0.00 0.00 0.00 10 1016.0
20260506012206 39 0 0.0 0.0 0.00 0.00 0.00 10 1016.0
20260506005950 40 0 0.0 0.0 0.00 0.00 0.00 10 1016.0
20260506004949 34 270 4.0 0.0 0.00 0.00 0.00 93 1016.0
20260506003947 35 270 4.0 0.0 0.00 0.00 0.00 93 1016.0
20260506002946 36 270 4.0 0.0 0.00 0.00 0.00 93 1016.0
20260506001945 37 270 4.0 0.0 0.00 0.00 0.00 93 1016.0
20260506000943 38 270 4.0 0.0 0.00 0.00 0.00 93 1016.0
20260505235942 39 270 4.0 0.0 0.00 0.00 0.00 93 1016.0
20260505234941 40 270 4.0 0.0 0.00 0.00 0.00 93 1016.0
20260505232730 41 270 4.0 0.0 0.00 0.00 0.00 93 1016.0
20260505225305 42 270 4.0 0.0 0.00 0.00 0.00 93 1016.0
20260505224301 36 20 13.0 0.0 0.00 0.00 0.00 11 1016.0
20260505223300 37 20 13.0 0.0 0.00 0.00 0.00 11 1016.0
20260505222259 38 20 13.0 0.0 0.00 0.00 0.00 11 1016.0
20260505214836 39 20 13.0 0.0 0.00 0.00 0.00 11 1015.0
20260505212621 40 20 13.0 0.0 0.00 0.00 0.00 11 1015.0
20260505210405 41 20 13.0 0.0 0.00 0.00 0.00 11 1015.0
20260505205405 42 20 13.0 0.0 0.00 0.00 0.00 11 1015.0
20260505204403 43 20 13.0 0.0 0.00 0.00 0.00 11 1015.0
20260505203402 44 20 13.0 0.0 0.00 0.00 0.00 11 1015.0
20260505202400 45 20 13.0 0.0 0.00 0.00 0.00 11 1014.0
20260505201358 46 20 13.0 0.0 0.00 0.00 0.00 11 1014.0
20260505200357 47 20 11.0 0.0 0.00 0.00 0.00 11 1014.0
20260505195357 48 20 11.0 0.0 0.00 0.00 0.00 11 1014.0
20260505194356 49 20 11.0 0.0 0.00 0.00 0.00 11 1014.0
20260505192143 50 250 11.0 0.0 0.00 0.00 0.00 11 1013.0
20260505191142 51 250 11.0 0.0 0.00 0.00 0.00 11 1013.0
20260505190141 52 250 11.0 0.0 0.00 0.00 0.00 11 1013.0
20260505185140 53 250 11.0 0.0 0.00 0.00 0.00 11 1013.0
20260505184140 54 250 12.0 0.0 0.00 0.00 0.00 11 1013.0
20260505181925 55 250 12.0 0.0 0.00 0.00 0.00 11 1013.0
20260505180924 56 300 11.0 24.0 0.00 0.00 0.00 11 1013.0
20260505175924 57 300 11.0 24.0 0.00 0.00 0.00 11 1013.0
20260505172456 58 300 12.0 24.0 0.00 0.00 0.00 11 1013.0
20260505171454 57 300 12.0 24.0 0.00 0.00 0.00 11 1013.0
20260505170452 56 280 11.0 0.0 0.00 0.00 0.00 11 1013.0
20260505164240 57 280 11.0 0.0 0.00 0.00 0.00 11 1013.0
20260505163238 58 280 11.0 0.0 0.00 0.00 0.00 11 1013.0
20260505162237 59 280 11.0 0.0 0.00 0.00 0.00 11 1013.0
20260505161236 60 280 11.0 0.0 0.00 0.00 0.00 11 1013.0
20260505160236 61 280 11.0 0.0 0.00 0.00 0.00 11 1013.0
20260505150558 51 280 11.0 0.0 0.00 0.00 0.00 12 1013.0
20260505124121 57 280 8.0 0.0 0.00 0.00 0.00 12 1013.0
20260505121908 57 280 8.0 0.0 0.00 0.00 0.00 12 1014.0
20260505120906 56 260 8.0 0.0 0.00 0.00 0.00 12 1014.0
20260505115905 57 260 8.0 0.0 0.00 0.00 0.00 12 1014.0
20260505114904 56 280 5.0 0.0 0.00 0.00 0.00 12 1014.0
20260505113903 57 280 6.0 0.0 0.00 0.00 0.00 12 1014.0
20260505112902 57 280 6.0 0.0 0.00 0.00 0.00 12 1015.0
20260505111900 56 280 6.0 0.0 0.00 0.00 0.00 12 1015.0
20260505110859 55 250 5.0 0.0 0.00 0.00 0.00 12 1015.0
20260505101854 51 270 8.0 0.0 0.00 0.00 0.00 13 1015.0
20260505100853 52 270 8.0 0.0 0.00 0.00 0.00 13 1015.0
20260505094637 53 270 8.0 0.0 0.00 0.00 0.00 13 1015.0
20260505093636 52 280 8.0 0.0 0.00 0.00 0.00 13 1015.0
20260505092636 52 280 8.0 0.0 0.00 0.00 0.00 13 1015.0
20260505091633 52 310 5.0 0.0 0.00 0.00 0.00 13 1015.0
20260505090633 53 310 6.0 0.0 0.00 0.00 0.00 13 1015.0
20260505085632 44 290 8.0 0.0 0.00 0.00 0.00 16 1015.0
20260505084631 45 290 8.0 0.0 0.00 0.00 0.00 16 1015.0
20260505083630 46 290 8.0 0.0 0.00 0.00 0.00 16 1015.0
20260505082629 47 290 8.0 0.0 0.00 0.00 0.00 16 1016.0
20260505081629 48 290 8.0 0.0 0.00 0.00 0.00 16 1016.0
20260505080627 49 270 5.0 0.0 0.00 0.00 0.00 16 1016.0
20260505075626 50 270 5.0 0.0 0.00 0.00 0.00 16 1016.0
20260505074625 51 270 6.0 0.0 0.00 0.00 0.00 16 1016.0
20260505073624 37 260 5.0 0.0 0.00 0.00 0.00 93 1016.0
20260505072623 38 260 5.0 0.0 0.00 0.00 0.00 93 1016.0
20260505071621 39 260 5.0 0.0 0.00 0.00 0.00 93 1016.0
20260505070621 40 0 0.0 0.0 0.00 0.00 0.00 93 1016.0